Stations météo

réclame
Mon MeteoGroup
Palermo/Punta Raisi, Italie (16405): Température de l'air & dewpoint: 10.12.2017 00:00:00 - 16.12.2017 00:00:00 (CET)Palermo/Punta Raisi, Italie (16405): Vitesse du vent: 10.12.2017 00:00:00 - 16.12.2017 00:00:00 (CET)Palermo/Punta Raisi, Italie (16405): Direction du vent: 10.12.2017 00:00:00 - 16.12.2017 00:00:00 (CET)Palermo/Punta Raisi, Italie (16405): reduced air pressure: 10.12.2017 00:00:00 - 16.12.2017 00:00:00 (CET)Palermo/Punta Raisi, Italie (16405): visibility: 10.12.2017 00:00:00 - 16.12.2017 00:00:00 (CET)Palermo/Punta Raisi, Italie (16405): Quantités de précipitations: 10.12.2017 00:00:00 - 16.12.2017 00:00:00 (CET)
Date & Time tt [°C] td [°C] ff [km/h] ff [knt] dd ppp [hPa] vv [km] rr [mm]
16.12.2017 00:00:00 17,0 9,0 29 16 SSW - 10 -
15.12.2017 23:00:00 17,0 8,0 35 19 S - 10 -
15.12.2017 22:00:00 16,8 6,6 35 19 S 1008,6 15 0,0
15.12.2017 21:00:00 16,0 8,0 35 19 SSW - 10 -
15.12.2017 20:00:00 15,0 9,0 35 19 SSW - 10 -
15.12.2017 19:00:00 15,4 8,6 35 19 SSW 1008,0 15 -
15.12.2017 18:00:00 17,0 6,0 39 21 SSW - 10 -
15.12.2017 17:00:00 17,0 5,0 37 20 S - 10 -
15.12.2017 16:00:00 17,2 6,6 31 17 SSW 1007,2 15 0,0
15.12.2017 15:00:00 18,0 8,0 42 23 SSW - 10 -
15.12.2017 14:00:00 18,0 7,0 31 17 SSW - 10 -
15.12.2017 13:00:00 18,1 6,6 35 19 S 1009,9 10 -
15.12.2017 12:00:00 18,0 6,0 37 20 SSW - 10 -
15.12.2017 11:00:00 17,0 7,0 37 20 SSW - 10 -
15.12.2017 10:00:00 16,2 7,5 35 19 SSW 1012,7 10 0,0
15.12.2017 09:00:00 15,0 6,0 31 17 SSW - 10 -
15.12.2017 08:00:00 15,0 7,0 35 19 S - 10 -
15.12.2017 07:00:00 15,4 2,6 29 16 S 1013,4 10 -
15.12.2017 06:00:00 - - - - - - - -
15.12.2017 05:00:00 - - - - - - - -
15.12.2017 04:00:00 14,2 5,8 31 17 S 1014,8 10 0,0
15.12.2017 03:00:00 14,0 8,0 34 18 SSW - 10 -
15.12.2017 02:00:00 14,0 8,0 34 18 SSW - 10 -
15.12.2017 01:00:00 13,9 7,9 34 18 SSW 1017,1 10 -
15.12.2017 00:00:00 14,0 8,0 28 15 S - 10 -
14.12.2017 23:00:00 14,0 7,0 29 16 SSW - 10 -
14.12.2017 22:00:00 14,3 4,8 39 21 SSW 1017,8 10 0,0
14.12.2017 21:00:00 14,0 7,0 31 17 SSW - 10 -
14.12.2017 20:00:00 14,0 8,0 28 15 SSW - 10 -
14.12.2017 19:00:00 13,7 7,9 26 14 SSW 1018,7 10 -
14.12.2017 18:00:00 14,0 9,0 18 10 SW - 10 -
14.12.2017 17:00:00 15,0 10,0 18 10 WSW - 10 -
14.12.2017 16:00:00 15,6 9,5 16 9 WSW 1019,7 10 0,0
14.12.2017 15:00:00 16,0 9,0 21 11 W - 10 -
14.12.2017 14:00:00 16,0 9,0 18 10 W - 10 -
14.12.2017 13:00:00 16,2 9,6 18 10 SW 1020,5 10 -
14.12.2017 12:00:00 15,0 8,0 26 14 SSW - 10 -
14.12.2017 11:00:00 15,0 7,0 24 13 SSW - 10 -
14.12.2017 10:00:00 14,6 5,8 24 13 SSW 1022,2 10 0,0
14.12.2017 09:00:00 13,0 6,0 21 11 S - 10 -
14.12.2017 08:00:00 11,0 5,0 13 7 S - 10 -
14.12.2017 07:00:00 11,2 5,6 15 8 S 1022,3 10 -
14.12.2017 06:00:00 14,0 7,0 28 15 W - 10 -
14.12.2017 05:00:00 14,0 6,0 28 15 W - 10 -
14.12.2017 04:00:00 14,3 7,2 28 15 W 1022,7 - 0,0
14.12.2017 03:00:00 15,0 9,0 29 16 W - 10 -
14.12.2017 02:00:00 15,0 8,0 28 15 WNW - 10 -
14.12.2017 01:00:00 14,7 8,7 24 13 W 1022,6 10 -
14.12.2017 00:00:00 15,0 9,0 24 13 W - 10 -
13.12.2017 23:00:00 15,0 9,0 28 15 WNW - 10 -
13.12.2017 22:00:00 15,2 9,2 21 11 WNW 1023,5 10 0,0
13.12.2017 21:00:00 15,0 11,0 21 11 WNW - 10 -
13.12.2017 20:00:00 15,0 10,0 24 13 WNW - 10 -
13.12.2017 19:00:00 15,3 10,2 22 12 WNW 1023,2 10 -
13.12.2017 18:00:00 15,0 11,0 31 17 W - 10 -
13.12.2017 17:00:00 16,0 11,0 34 18 W - 10 -
13.12.2017 16:00:00 16,4 10,7 15 8 NW 1021,8 10 0,0
13.12.2017 15:00:00 16,0 10,0 16 9 WNW - 10 -
13.12.2017 14:00:00 16,0 11,0 26 14 W - 10 -
13.12.2017 13:00:00 16,4 12,5 28 15 W 1022,1 20 -
13.12.2017 12:00:00 17,0 12,0 22 12 W - 10 -
13.12.2017 11:00:00 17,0 12,0 15 8 WSW - 10 -
13.12.2017 10:00:00 17,2 11,2 22 12 S 1022,4 10 0,0
13.12.2017 09:00:00 16,0 11,0 28 15 SSW - 10 -
13.12.2017 08:00:00 17,0 9,0 37 20 SSW - 10 -
13.12.2017 07:00:00 17,2 8,2 34 18 SSW 1020,1 10 -
13.12.2017 06:00:00 17,0 7,0 26 14 S - 10 -
13.12.2017 05:00:00 17,0 6,0 34 18 SSW - 10 -
13.12.2017 04:00:00 17,5 5,6 29 16 SSW 1019,1 10 0,0
13.12.2017 03:00:00 18,0 5,0 37 20 SSW - 10 -
13.12.2017 02:00:00 19,0 3,0 39 21 S - 10 -
13.12.2017 01:00:00 18,9 1,6 34 18 SSW 1018,3 10 -
13.12.2017 00:00:00 19,0 0,0 46 25 S - 10 -
12.12.2017 23:00:00 20,0 0,0 39 21 S - 10 -
12.12.2017 22:00:00 19,1 -0,6 37 20 S 1017,9 10 0,0
12.12.2017 21:00:00 19,0 1,0 39 21 S - 10 -
12.12.2017 20:00:00 19,0 1,0 42 23 S - 10 -
12.12.2017 19:00:00 18,5 2,7 39 21 S 1017,1 10 -
12.12.2017 18:00:00 17,0 8,0 31 17 SSW - 10 -
12.12.2017 17:00:00 18,0 7,0 35 19 SSW - 10 -
12.12.2017 16:00:00 18,0 5,7 35 19 SSW 1016,2 10 0,0
12.12.2017 15:00:00 19,0 7,0 34 18 SSW - 10 -
12.12.2017 14:00:00 19,0 7,0 37 20 SSW - 10 -
12.12.2017 13:00:00 19,5 7,5 39 21 SSW 1016,1 10 -
12.12.2017 12:00:00 19,0 8,0 42 23 SSW - 10 -
12.12.2017 11:00:00 19,0 8,0 31 17 SSW - 10 -
12.12.2017 10:00:00 18,2 6,7 46 25 S 1015,7 10 0,0
12.12.2017 09:00:00 17,0 7,0 46 25 SSW - 10 -
12.12.2017 08:00:00 17,0 7,0 50 27 S - 10 -
12.12.2017 07:00:00 16,7 7,5 41 22 S 1013,6 10 -
12.12.2017 06:00:00 17,0 8,0 54 29 S - 10 -
12.12.2017 05:00:00 17,0 8,0 54 29 SSW - 10 -
12.12.2017 04:00:00 16,7 8,2 59 32 SSW 1011,7 10 0,0
12.12.2017 03:00:00 17,0 7,0 35 19 SSW - 10 -
12.12.2017 02:00:00 17,0 7,0 50 27 S - 10 -
12.12.2017 01:00:00 16,9 7,6 55 30 S 1011,2 10 -
12.12.2017 00:00:00 17,0 8,0 59 32 S - 10 -
11.12.2017 23:00:00 17,0 7,0 59 32 SSW - 10 -
11.12.2017 22:00:00 16,6 7,1 67 36 S 1010,2 10 0,0
11.12.2017 21:00:00 17,0 6,0 59 32 S - 10 -
11.12.2017 20:00:00 17,0 6,0 50 27 S - 10 -
11.12.2017 19:00:00 17,0 6,2 59 32 S 1009,4 10 -
11.12.2017 18:00:00 17,0 7,0 55 30 S - 10 -
11.12.2017 17:00:00 17,0 7,0 50 27 S - 10 -
11.12.2017 16:00:00 17,1 6,8 55 30 S 1009,0 10 0,0
11.12.2017 15:00:00 18,0 8,0 61 33 SSW - 10 -
11.12.2017 14:00:00 17,0 7,0 63 34 SSW - 10 -
11.12.2017 13:00:00 17,4 7,5 54 29 S 1010,0 10 -
11.12.2017 12:00:00 - - - - - - - -
11.12.2017 11:00:00 17,0 9,0 44 24 SSW - 10 -
11.12.2017 10:00:00 16,8 9,2 39 21 S 1013,5 10 0,0
11.12.2017 09:00:00 16,0 9,0 50 27 S - 10 -
11.12.2017 08:00:00 15,0 9,0 42 23 SSW - 10 -
11.12.2017 07:00:00 15,1 8,7 44 24 SSW 1012,9 10 -
11.12.2017 06:00:00 16,0 10,0 29 16 SSW - 10 -
11.12.2017 05:00:00 - - - - - - - -
11.12.2017 04:00:00 14,9 9,0 29 16 S 1014,7 10 0,0
11.12.2017 03:00:00 15,0 9,0 34 18 SSW - 10 -
11.12.2017 02:00:00 14,0 8,0 29 16 S - 10 -
11.12.2017 01:00:00 13,7 7,1 35 19 S 1016,3 10 -
11.12.2017 00:00:00 13,0 6,0 35 19 S - 10 -
10.12.2017 23:00:00 13,0 5,0 31 17 S - 10 -
10.12.2017 22:00:00 12,6 4,2 28 15 S 1017,8 10 0,0
10.12.2017 21:00:00 12,0 4,0 34 18 S - 10 -
10.12.2017 20:00:00 12,0 3,0 22 12 S - 10 -
10.12.2017 19:00:00 11,9 2,3 26 14 S 1019,3 10 -
10.12.2017 18:00:00 11,0 2,0 16 9 S - 10 -
10.12.2017 17:00:00 11,0 2,0 13 7 SSW - 10 -
10.12.2017 16:00:00 12,6 2,3 16 9 SSW 1019,4 10 0,0
10.12.2017 15:00:00 13,0 3,0 8 4 W - 10 -
10.12.2017 14:00:00 13,0 3,0 9 5 W - 10 -
10.12.2017 13:00:00 12,6 2,5 13 7 W 1021,8 10 -
10.12.2017 12:00:00 13,0 2,0 11 6 WSW - 10 -
10.12.2017 11:00:00 12,0 4,0 16 9 SSW - 10 -
10.12.2017 10:00:00 11,3 3,3 16 9 SSW 1022,0 10 0,0
10.12.2017 09:00:00 11,0 3,0 15 8 SSW - 10 -
10.12.2017 08:00:00 12,0 5,0 11 6 NW - 10 -
10.12.2017 07:00:00 12,1 3,9 21 11 NW 1020,4 10 -
10.12.2017 06:00:00 13,0 6,0 26 14 WNW - 10 -
10.12.2017 05:00:00 13,0 4,0 22 12 NW - 10 -
10.12.2017 04:00:00 12,6 5,9 24 13 NW 1020,0 10 0,0
10.12.2017 03:00:00 13,0 4,0 22 12 WNW - 10 -
10.12.2017 02:00:00 13,0 5,0 26 14 WNW - 10 -
10.12.2017 01:00:00 13,0 5,1 26 14 WNW 1019,8 10 -
10.12.2017 00:00:00 13,0 5,0 28 15 NW - 10 -

tt = Température de l'air
td = dewpoint
ff = Vitesse du vent
dd = Direction du vent
ppp = reduced air pressure
vv = visibility
rr = Quantités de précipitations

stations d'obs. à proximité